Weather History for Stockton, CA

Change the Weather History Date:

Sunday, May 10, 2009

  Actual Average Record
Temperature  
Mean Temperature 73 °F -  
Max Temperature 90 °F 80 °F 97 °F (1987)
Min Temperature 55 °F 51 °F 42 °F (1999)
Degree Days  
Heating Degree Days 0 2  
Month to date heating degree days 10 30  
Since 1 July heating degree days 2439 2606  
Cooling Degree Days 8 3  
Month to date cooling degree days 25 21  
Year to date cooling degree days 66 38  
Growing Degree Days 22 (Base 50)    
Moisture  
Dew Point 43 °F    
Average Humidity 42    
Maximum Humidity 72    
Minimum Humidity 12    
Precipitation  
Precipitation 0.00 in 0.02 in 0.21 in (1963)
Month to date precipitation 0.37 0.21  
Year to date precipitation 6.62 8.63  
Since 1 July precipitation 9.23 13.66  
Snow  
Snow 0.00 in - - ()
Month to date snowfall 0.0  
Since 1 July snowfall 0.0  
Snow Depth 0.00 in    
Sea Level Pressure  
Sea Level Pressure 29.91 in    
Wind  
Wind Speed 8 mph (NW)    
Max Wind Speed 20 mph    
Max Gust Speed 23 mph    
Visibility 10 miles    
Events      
T = Trace of Precipitation, MM = Missing Value Source: NWS Daily Summary

Daily Weather History Graph

Daily Weather History Graph

Search for Another Location

Airport:

Trip Planner

Search our weather history database for the weather conditions in past years. The results will help you decide how hot, cold, wet, or windy it might be!

Date:

Astronomy

May. 10, 2009 Rise Set
Actual Time 5:59 AM PDT 8:04 PM PDT
Civil Twilight 5:29 AM PDT 8:33 PM PDT
Nautical Twilight 4:54 AM PDT 9:08 PM PDT
Astronomical Twilight 4:16 AM PDT 9:47 PM PDT
Moon 10:07 PM PDT (5/10) 6:36 AM PDT (5/10)
Length of Visible Light 15h 03m
Length of Day
14h 05m
Full, 97% of the Moon is Illuminated
May 10
Full
May 17
Last Quarter
May 24
New
May 30
First Quarter
Jun 7
Full

Hourly Weather History & Observations

Time (PDT) Temp. Dew Point Humidity Pressure Visibility Wind Dir Wind Speed Gust Speed Precip Events Conditions
12:55 AM 57.9 °F 46.0 °F 65% 29.92 in 10.0 mi North 3.5 mph - N/A   Clear
1:55 AM 55.9 °F 45.0 °F 67% 29.91 in 10.0 mi NNW 3.5 mph - N/A   Clear
2:55 AM 55.0 °F 45.0 °F 69% 29.91 in 10.0 mi NNW 8.1 mph - N/A   Clear
3:55 AM 57.9 °F 46.0 °F 65% 29.91 in 10.0 mi NNW 8.1 mph - N/A   Clear
4:55 AM 59.0 °F 46.9 °F 64% 29.91 in 10.0 mi NW 8.1 mph - N/A   Clear
5:55 AM 55.9 °F 46.0 °F 69% 29.92 in 10.0 mi WNW 9.2 mph - N/A   Clear
6:55 AM 59.0 °F 46.9 °F 64% 29.94 in 10.0 mi WNW 3.5 mph - N/A   Clear
7:55 AM 64.0 °F 48.0 °F 56% 29.94 in 10.0 mi NW 8.1 mph - N/A   Clear
8:55 AM 69.1 °F 46.9 °F 45% 29.95 in 10.0 mi NW 6.9 mph - N/A   Clear
9:55 AM 72.0 °F 45.0 °F 38% 29.95 in 10.0 mi NW 9.2 mph - N/A   Clear
10:55 AM 77.0 °F 43.0 °F 30% 29.94 in 10.0 mi NNW 11.5 mph 18.4 mph N/A   Clear
11:55 AM 82.0 °F 39.9 °F 22% 29.94 in 10.0 mi NW 13.8 mph 20.7 mph N/A   Clear
12:55 PM 84.0 °F 42.1 °F 23% 29.92 in 10.0 mi WNW 13.8 mph - N/A   Clear
1:55 PM 86.0 °F 45.0 °F 24% 29.91 in 10.0 mi NW 13.8 mph - N/A   Clear
2:55 PM 87.1 °F 42.1 °F 21% 29.90 in 10.0 mi NW 13.8 mph 20.7 mph N/A   Clear
3:55 PM 89.1 °F 30.0 °F 12% 29.88 in 10.0 mi NNW 13.8 mph - N/A   Clear
4:55 PM 88.0 °F 30.9 °F 13% 29.87 in 10.0 mi NNW 18.4 mph - N/A   Clear
6:55 PM 84.9 °F 39.0 °F 20% 29.86 in 10.0 mi WNW 13.8 mph - N/A   Clear
7:55 PM 79.0 °F 46.9 °F 32% 29.86 in 10.0 mi West 11.5 mph - N/A   Clear
8:55 PM 73.0 °F 44.1 °F 35% 29.87 in 10.0 mi WSW 9.2 mph - N/A   Clear
9:55 PM 70.0 °F 45.0 °F 41% 29.89 in 10.0 mi West 11.5 mph - N/A   Clear
10:55 PM 66.9 °F 45.0 °F 45% 29.90 in 10.0 mi West 13.8 mph - N/A   Clear
11:55 PM 64.9 °F 43.0 °F 45% 29.90 in 10.0 mi West 12.7 mph - N/A   Clear